Time,TemperatureF,DewpointF,PressureIn,WindDirection,WindDirectionDegrees,WindSpeedMPH,WindSpeedGustMPH,Humidity,HourlyPrecipIn,Conditions,Clouds,dailyrainin,SoftwareType,DateUTC
2013-08-11 00:00:00,72.3,68.9,30.11,WNW,292,0.0,0.0,89,0.00,,---,0.00,VWS V14.01,2013-08-11 04:00:00,
2013-08-11 00:01:00,72.2,68.8,30.11,WNW,284,0.0,0.0,89,0.00,,SKC,0.00,VWS V14.01,2013-08-11 04:01:00,
2013-08-11 00:02:00,72.2,68.8,30.11,WNW,284,0.0,0.0,89,0.00,,SKC,0.00,VWS V14.01,2013-08-11 04:02:00,
2013-08-11 00:05:00,72.2,68.8,30.11,WNW,284,0.0,0.0,89,0.00,,SKC,0.00,VWS V14.01,2013-08-11 04:05:00,
2013-08-11 00:09:00,72.2,68.8,30.11,WNW,284,0.0,0.0,89,0.00,,SKC,0.00,VWS V14.01,2013-08-11 04:09:00,
2013-08-11 00:14:00,72.1,68.7,30.11,WNW,283,0.0,0.0,89,0.00,,SKC,0.00,VWS V14.01,2013-08-11 04:14:00,
2013-08-11 00:18:00,72.1,68.7,30.11,WNW,284,0.0,0.0,89,0.00,,SKC,0.00,VWS V14.01,2013-08-11 04:18:00,
2013-08-11 00:24:00,72.0,68.6,30.11,WNW,284,0.0,0.0,89,0.00,,SKC,0.00,VWS V14.01,2013-08-11 04:24:00,
2013-08-11 00:29:00,71.9,68.5,30.11,WNW,283,0.0,0.0,89,0.00,,SKC,0.00,VWS V14.01,2013-08-11 04:29:00,
2013-08-11 00:30:00,71.9,68.5,30.11,WNW,292,0.0,0.0,89,0.00,,---,0.00,VWS V14.01,2013-08-11 04:30:00,
2013-08-11 00:35:00,71.8,68.4,30.11,WNW,284,0.0,0.0,89,0.00,,SKC,0.00,VWS V14.01,2013-08-11 04:35:00,
2013-08-11 00:40:00,71.7,68.3,30.11,WNW,284,0.0,0.0,89,0.00,,SKC,0.00,VWS V14.01,2013-08-11 04:40:00,
2013-08-11 00:45:00,71.6,68.2,30.11,WNW,284,0.0,0.0,89,0.00,,SKC,0.00,VWS V14.01,2013-08-11 04:45:00,
2013-08-11 00:51:00,71.5,68.1,30.11,WNW,284,0.0,0.0,89,0.00,,SKC,0.00,VWS V14.01,2013-08-11 04:51:00,
2013-08-11 00:56:00,71.5,68.1,30.12,WNW,284,0.0,0.0,89,0.00,,SKC,0.00,VWS V14.01,2013-08-11 04:56:00,
2013-08-11 01:00:00,71.4,68.0,30.12,WNW,292,0.0,0.0,89,0.00,,---,0.00,VWS V14.01,2013-08-11 05:00:00,
2013-08-11 01:02:00,71.4,68.0,30.12,WNW,284,0.0,0.0,89,0.00,,SKC,0.00,VWS V14.01,2013-08-11 05:02:00,
2013-08-11 01:07:00,71.4,68.0,30.12,WNW,284,0.0,0.0,89,0.00,,SKC,0.00,VWS V14.01,2013-08-11 05:07:00,
2013-08-11 01:13:00,71.4,68.0,30.11,WNW,284,0.0,0.0,89,0.00,,SKC,0.00,VWS V14.01,2013-08-11 05:13:00,
2013-08-11 01:18:00,71.3,67.9,30.11,WNW,283,0.0,0.0,89,0.00,,SKC,0.00,VWS V14.01,2013-08-11 05:18:00,
2013-08-11 01:27:00,71.3,67.9,30.11,WNW,284,0.0,0.0,89,0.00,,SKC,0.00,VWS V14.01,2013-08-11 05:27:00,
2013-08-11 01:30:00,71.3,67.9,30.11,WNW,292,0.0,1.0,89,0.00,,---,0.00,VWS V14.01,2013-08-11 05:30:00,
2013-08-11 01:34:00,71.2,67.8,30.11,WNW,284,0.0,0.0,89,0.00,,SKC,0.00,VWS V14.01,2013-08-11 05:34:00,
2013-08-11 01:39:00,71.1,67.7,30.11,WNW,284,0.0,0.0,89,0.00,,SKC,0.00,VWS V14.01,2013-08-11 05:39:00,
2013-08-11 01:45:00,71.0,67.6,30.11,WNW,283,0.0,0.0,89,0.00,,SKC,0.00,VWS V14.01,2013-08-11 05:45:00,
2013-08-11 01:52:00,71.0,67.6,30.11,WNW,284,0.0,0.0,89,0.00,,SKC,0.00,VWS V14.01,2013-08-11 05:52:00,
2013-08-11 01:57:00,70.8,67.4,30.11,WNW,284,0.0,0.0,89,0.00,,SKC,0.00,VWS V14.01,2013-08-11 05:57:00,
2013-08-11 02:00:00,70.8,67.4,30.12,WNW,292,0.0,0.0,89,0.00,,---,0.00,VWS V14.01,2013-08-11 06:00:00,
2013-08-11 02:03:00,70.8,67.4,30.12,WNW,284,0.0,0.0,89,0.00,,SKC,0.00,VWS V14.01,2013-08-11 06:03:00,
2013-08-11 02:08:00,70.7,67.3,30.12,WNW,284,0.0,0.0,89,0.00,,SKC,0.00,VWS V14.01,2013-08-11 06:08:00,
2013-08-11 02:14:00,70.7,67.3,30.11,WNW,284,0.0,0.0,89,0.00,,SKC,0.00,VWS V14.01,2013-08-11 06:14:00,
2013-08-11 02:19:00,70.6,67.2,30.11,WNW,284,0.0,0.0,89,0.00,,SKC,0.00,VWS V14.01,2013-08-11 06:19:00,
2013-08-11 02:25:00,70.5,67.1,30.11,WNW,283,0.0,0.0,89,0.00,,SKC,0.00,VWS V14.01,2013-08-11 06:25:00,
2013-08-11 02:30:00,70.4,67.0,30.11,WNW,284,0.0,0.0,89,0.00,,SKC,0.00,VWS V14.01,2013-08-11 06:30:00,
2013-08-11 02:36:00,70.3,66.9,30.11,WNW,284,0.0,0.0,89,0.00,,SKC,0.00,VWS V14.01,2013-08-11 06:36:00,
2013-08-11 02:42:00,70.3,66.6,30.11,WNW,284,0.0,0.0,88,0.00,,SKC,0.00,VWS V14.01,2013-08-11 06:42:00,
2013-08-11 02:50:00,70.3,66.6,30.11,WNW,283,0.0,0.0,88,0.00,,SKC,0.00,VWS V14.01,2013-08-11 06:50:00,
2013-08-11 02:56:00,70.2,66.5,30.11,WNW,284,0.0,0.0,88,0.00,,SKC,0.00,VWS V14.01,2013-08-11 06:56:00,
2013-08-11 03:00:00,70.2,66.5,30.11,WNW,292,0.0,0.0,88,0.00,,---,0.00,VWS V14.01,2013-08-11 07:00:00,
2013-08-11 03:04:00,70.2,66.5,30.11,WNW,284,0.0,0.0,88,0.00,,SKC,0.00,VWS V14.01,2013-08-11 07:04:00,
2013-08-11 03:12:00,70.1,66.4,30.11,WNW,284,0.0,0.0,88,0.00,,SKC,0.00,VWS V14.01,2013-08-11 07:12:00,
2013-08-11 03:17:00,70.0,66.3,30.11,WNW,283,0.0,0.0,88,0.00,,SKC,0.00,VWS V14.01,2013-08-11 07:17:00,
2013-08-11 03:22:00,70.0,66.3,30.11,WNW,284,0.0,0.0,88,0.00,,SKC,0.00,VWS V14.01,2013-08-11 07:22:00,
2013-08-11 03:28:00,69.9,66.2,30.11,WNW,283,0.0,0.0,88,0.00,,SKC,0.00,VWS V14.01,2013-08-11 07:28:00,
2013-08-11 03:30:00,69.9,66.2,30.11,WNW,292,0.0,0.0,88,0.00,,---,0.00,VWS V14.01,2013-08-11 07:30:00,
2013-08-11 03:33:00,69.8,66.1,30.11,WNW,284,0.0,0.0,88,0.00,,SKC,0.00,VWS V14.01,2013-08-11 07:33:00,
2013-08-11 03:40:00,69.7,66.0,30.11,WNW,284,0.0,0.0,88,0.00,,SKC,0.00,VWS V14.01,2013-08-11 07:40:00,
2013-08-11 03:46:00,69.7,65.7,30.11,WNW,284,0.0,0.0,87,0.00,,SKC,0.00,VWS V14.01,2013-08-11 07:46:00,
2013-08-11 03:53:00,69.7,65.7,30.11,WNW,284,0.0,0.0,87,0.00,,SKC,0.00,VWS V14.01,2013-08-11 07:53:00,
2013-08-11 03:58:00,69.6,65.6,30.11,WNW,283,0.0,0.0,87,0.00,,SKC,0.00,VWS V14.01,2013-08-11 07:58:00,
2013-08-11 04:00:00,69.6,65.6,30.11,WNW,292,0.0,0.0,87,0.00,,---,0.00,VWS V14.01,2013-08-11 08:00:00,
2013-08-11 04:04:00,69.5,65.5,30.11,WNW,284,0.0,0.0,87,0.00,,SKC,0.00,VWS V14.01,2013-08-11 08:04:00,
2013-08-11 04:10:00,69.5,65.5,30.11,WNW,284,0.0,0.0,87,0.00,,SKC,0.00,VWS V14.01,2013-08-11 08:10:00,
2013-08-11 04:15:00,69.5,65.5,30.11,WNW,283,0.0,0.0,87,0.00,,SKC,0.00,VWS V14.01,2013-08-11 08:15:00,
2013-08-11 04:21:00,69.4,65.4,30.11,WNW,284,0.0,0.0,87,0.00,,SKC,0.00,VWS V14.01,2013-08-11 08:21:00,
2013-08-11 04:26:00,69.4,65.4,30.11,WNW,284,0.0,0.0,87,0.00,,SKC,0.00,VWS V14.01,2013-08-11 08:26:00,
2013-08-11 04:30:00,69.4,65.4,30.11,WNW,292,0.0,0.0,87,0.00,,---,0.00,VWS V14.01,2013-08-11 08:30:00,
2013-08-11 04:31:00,69.4,65.0,30.11,WNW,284,0.0,0.0,86,0.00,,SKC,0.00,VWS V14.01,2013-08-11 08:31:00,
2013-08-11 04:37:00,69.4,65.0,30.11,WNW,284,0.0,0.0,86,0.00,,SKC,0.00,VWS V14.01,2013-08-11 08:37:00,
2013-08-11 04:43:00,69.3,64.9,30.11,WNW,284,0.0,0.0,86,0.00,,SKC,0.00,VWS V14.01,2013-08-11 08:43:00,
2013-08-11 04:48:00,69.3,64.9,30.11,WNW,284,0.0,0.0,86,0.00,,SKC,0.00,VWS V14.01,2013-08-11 08:48:00,
2013-08-11 04:54:00,69.2,64.8,30.11,WNW,284,0.0,0.0,86,0.00,,SKC,0.00,VWS V14.01,2013-08-11 08:54:00,
2013-08-11 05:00:00,69.2,64.8,30.11,WNW,284,0.0,0.0,86,0.00,,SKC,0.00,VWS V14.01,2013-08-11 09:00:00,
2013-08-11 05:07:00,69.2,64.8,30.12,WNW,284,0.0,0.0,86,0.00,,SKC,0.00,VWS V14.01,2013-08-11 09:07:00,
2013-08-11 05:13:00,69.2,64.8,30.12,WNW,284,0.0,0.0,86,0.00,,SKC,0.00,VWS V14.01,2013-08-11 09:13:00,
2013-08-11 05:18:00,69.1,64.7,30.12,WNW,284,0.0,0.0,86,0.00,,SKC,0.00,VWS V14.01,2013-08-11 09:18:00,
2013-08-11 05:24:00,69.0,64.6,30.12,WNW,284,0.0,0.0,86,0.00,,SKC,0.00,VWS V14.01,2013-08-11 09:24:00,
2013-08-11 05:29:00,69.0,64.6,30.12,WNW,284,0.0,0.0,86,0.00,,SKC,0.00,VWS V14.01,2013-08-11 09:29:00,
2013-08-11 05:30:00,69.0,64.6,30.12,WNW,292,0.0,0.0,86,0.00,,---,0.00,VWS V14.01,2013-08-11 09:30:00,
2013-08-11 05:38:00,69.0,64.6,30.12,WNW,284,0.0,0.0,86,0.00,,SKC,0.00,VWS V14.01,2013-08-11 09:38:00,
2013-08-11 05:43:00,69.0,64.3,30.12,WNW,284,0.0,0.0,85,0.00,,SKC,0.00,VWS V14.01,2013-08-11 09:43:00,
2013-08-11 05:50:00,69.0,64.3,30.12,WNW,284,0.0,0.0,85,0.00,,SKC,0.00,VWS V14.01,2013-08-11 09:50:00,
2013-08-11 05:56:00,68.9,64.2,30.12,WNW,284,0.0,0.0,85,0.00,,SKC,0.00,VWS V14.01,2013-08-11 09:56:00,
2013-08-11 06:00:00,68.9,64.2,30.12,WNW,292,0.0,0.0,85,0.00,,---,0.00,VWS V14.01,2013-08-11 10:00:00,
2013-08-11 06:01:00,68.9,64.2,30.12,WNW,284,0.0,0.0,85,0.00,,SKC,0.00,VWS V14.01,2013-08-11 10:01:00,
2013-08-11 06:07:00,68.8,64.1,30.12,WNW,284,0.0,0.0,85,0.00,,SKC,0.00,VWS V14.01,2013-08-11 10:07:00,
2013-08-11 06:15:00,68.9,64.2,30.13,WNW,284,0.0,0.0,85,0.00,,SKC,0.00,VWS V14.01,2013-08-11 10:15:00,
2013-08-11 06:21:00,68.8,64.1,30.13,WNW,284,0.0,0.0,85,0.00,,SKC,0.00,VWS V14.01,2013-08-11 10:21:00,
2013-08-11 06:29:00,68.8,64.1,30.13,WNW,284,0.0,0.0,85,0.00,,SKC,0.00,VWS V14.01,2013-08-11 10:29:00,
2013-08-11 06:30:00,68.8,64.1,30.13,WNW,292,0.0,0.0,85,0.00,,---,0.00,VWS V14.01,2013-08-11 10:30:00,
2013-08-11 06:35:00,68.8,64.1,30.13,WNW,284,0.0,0.0,85,0.00,,SKC,0.00,VWS V14.01,2013-08-11 10:35:00,
2013-08-11 06:42:00,68.9,63.9,30.13,WNW,284,0.0,0.0,84,0.00,,SKC,0.00,VWS V14.01,2013-08-11 10:42:00,
2013-08-11 06:47:00,68.9,64.2,30.13,WNW,284,0.0,0.0,85,0.00,,SKC,0.00,VWS V14.01,2013-08-11 10:47:00,
2013-08-11 06:53:00,68.9,64.2,30.13,WNW,284,0.0,0.0,85,0.00,,SKC,0.00,VWS V14.01,2013-08-11 10:53:00,
2013-08-11 06:58:00,68.9,64.2,30.14,WNW,284,0.0,0.0,85,0.00,,SKC,0.00,VWS V14.01,2013-08-11 10:58:00,
2013-08-11 07:00:00,68.9,64.2,30.14,WNW,292,0.0,0.0,85,0.00,,---,0.00,VWS V14.01,2013-08-11 11:00:00,
2013-08-11 07:04:00,68.9,63.9,30.13,WNW,284,0.0,0.0,84,0.00,,SKC,0.00,VWS V14.01,2013-08-11 11:04:00,
2013-08-11 07:12:00,68.9,63.9,30.13,WNW,283,0.0,0.0,84,0.00,,SKC,0.00,VWS V14.01,2013-08-11 11:12:00,
2013-08-11 07:18:00,69.0,64.0,30.13,WNW,284,0.0,0.0,84,0.00,,SKC,0.00,VWS V14.01,2013-08-11 11:18:00,
2013-08-11 07:24:00,69.0,64.0,30.13,WNW,284,0.0,0.0,84,0.00,,SKC,0.00,VWS V14.01,2013-08-11 11:24:00,
2013-08-11 07:29:00,69.1,64.1,30.14,WNW,284,0.0,0.0,84,0.00,,SKC,0.00,VWS V14.01,2013-08-11 11:29:00,
2013-08-11 07:30:00,69.1,64.1,30.14,WNW,292,0.0,0.0,84,0.00,,---,0.00,VWS V14.01,2013-08-11 11:30:00,
2013-08-11 07:34:00,69.3,64.3,30.14,WNW,284,0.0,0.0,84,0.00,,SKC,0.00,VWS V14.01,2013-08-11 11:34:00,
2013-08-11 07:40:00,69.5,64.5,30.14,WNW,284,0.0,0.0,84,0.00,,SKC,0.00,VWS V14.01,2013-08-11 11:40:00,
2013-08-11 07:45:00,69.8,64.8,30.13,WNW,283,0.0,0.0,84,0.00,,SKC,0.00,VWS V14.01,2013-08-11 11:45:00,
2013-08-11 07:54:00,70.2,65.8,30.13,WNW,284,0.0,0.0,86,0.00,,SKC,0.00,VWS V14.01,2013-08-11 11:54:00,
2013-08-11 08:00:00,70.6,66.6,30.13,WNW,283,0.0,0.0,87,0.00,,SKC,0.00,VWS V14.01,2013-08-11 12:00:00,
2013-08-11 08:07:00,71.3,67.6,30.13,West,281,0.0,0.0,88,0.00,,SKC,0.00,VWS V14.01,2013-08-11 12:07:00,
2013-08-11 08:14:00,72.2,68.8,30.13,West,266,0.0,1.0,89,0.00,,SKC,0.00,VWS V14.01,2013-08-11 12:14:00,
2013-08-11 08:19:00,73.0,69.6,30.13,West,270,0.0,1.0,89,0.00,,SKC,0.00,VWS V14.01,2013-08-11 12:19:00,
2013-08-11 08:25:00,74.0,69.9,30.13,West,270,0.0,1.0,87,0.00,,SKC,0.00,VWS V14.01,2013-08-11 12:25:00,
2013-08-11 08:30:00,74.6,70.1,30.13,West,270,0.0,1.0,86,0.00,,SKC,0.00,VWS V14.01,2013-08-11 12:30:00,
2013-08-11 08:37:00,75.5,70.7,30.14,West,281,0.0,1.0,85,0.00,,SKC,0.00,VWS V14.01,2013-08-11 12:37:00,
2013-08-11 08:43:00,76.3,71.1,30.13,West,281,0.0,1.0,84,0.00,,SKC,0.00,VWS V14.01,2013-08-11 12:43:00,
2013-08-11 08:49:00,76.8,70.9,30.13,West,280,0.0,1.0,82,0.00,,SKC,0.00,VWS V14.01,2013-08-11 12:49:00,
2013-08-11 08:54:00,77.2,71.3,30.14,WNW,287,1.0,1.0,82,0.00,,SKC,0.00,VWS V14.01,2013-08-11 12:54:00,
2013-08-11 09:00:00,77.5,71.6,30.14,WNW,301,0.0,0.0,82,0.00,,SKC,0.00,VWS V14.01,2013-08-11 13:00:00,
2013-08-11 09:05:00,78.3,72.4,30.14,WNW,298,0.0,0.0,82,0.00,,SKC,0.00,VWS V14.01,2013-08-11 13:05:00,
2013-08-11 09:11:00,78.7,72.8,30.14,WNW,284,0.0,1.0,82,0.00,,SKC,0.00,VWS V14.01,2013-08-11 13:11:00,
2013-08-11 09:16:00,79.0,72.3,30.14,West,278,0.0,2.0,80,0.00,,SKC,0.00,VWS V14.01,2013-08-11 13:16:00,
2013-08-11 09:22:00,79.5,72.4,30.14,West,278,0.0,2.0,79,0.00,,SKC,0.00,VWS V14.01,2013-08-11 13:22:00,
2013-08-11 09:29:00,79.9,72.4,30.15,WNW,291,1.0,2.0,78,0.00,,SKC,0.00,VWS V14.01,2013-08-11 13:29:00,
2013-08-11 09:30:00,79.9,72.4,30.15,WNW,292,0.0,2.0,78,0.00,,---,0.00,VWS V14.01,2013-08-11 13:30:00,
2013-08-11 09:34:00,80.4,72.9,30.14,WNW,293,1.0,1.0,78,0.00,,SKC,0.00,VWS V14.01,2013-08-11 13:34:00,
2013-08-11 09:40:00,80.4,72.9,30.14,WNW,288,0.0,1.0,78,0.00,,SKC,0.00,VWS V14.01,2013-08-11 13:40:00,
2013-08-11 09:45:00,80.7,72.8,30.14,SSE,153,0.0,1.0,77,0.00,,SKC,0.00,VWS V14.01,2013-08-11 13:45:00,
2013-08-11 09:51:00,81.1,73.2,30.14,WNW,282,0.0,1.0,77,0.00,,SKC,0.00,VWS V14.01,2013-08-11 13:51:00,
2013-08-11 09:56:00,81.4,73.5,30.14,West,266,0.0,1.0,77,0.00,,SKC,0.00,VWS V14.01,2013-08-11 13:56:00,
2013-08-11 10:00:00,81.6,73.3,30.14,WNW,292,0.0,2.0,76,0.00,,---,0.00,VWS V14.01,2013-08-11 14:00:00,
2013-08-11 10:02:00,81.8,73.5,30.14,ESE,120,1.0,1.0,76,0.00,,SKC,0.00,VWS V14.01,2013-08-11 14:02:00,
2013-08-11 10:07:00,82.1,72.6,30.14,WNW,300,1.0,1.0,73,0.00,,SKC,0.00,VWS V14.01,2013-08-11 14:07:00,
2013-08-11 10:13:00,82.3,72.8,30.14,WNW,290,0.0,2.0,73,0.00,,SKC,0.00,VWS V14.01,2013-08-11 14:13:00,
2013-08-11 10:18:00,82.3,73.2,30.14,WNW,288,0.0,2.0,74,0.00,,SKC,0.00,VWS V14.01,2013-08-11 14:18:00,
2013-08-11 10:24:00,82.5,73.4,30.14,South,185,0.0,2.0,74,0.00,,SKC,0.00,VWS V14.01,2013-08-11 14:24:00,
2013-08-11 10:29:00,83.3,74.2,30.14,SE,142,0.0,2.0,74,0.00,,SKC,0.00,VWS V14.01,2013-08-11 14:29:00,
2013-08-11 10:30:00,83.2,74.1,30.14,WNW,292,0.0,2.0,74,0.00,,---,0.00,VWS V14.01,2013-08-11 14:30:00,
2013-08-11 10:35:00,83.3,73.8,30.14,SE,128,0.0,2.0,73,0.00,,SKC,0.00,VWS V14.01,2013-08-11 14:35:00,
2013-08-11 10:40:00,83.4,73.8,30.14,SW,236,0.0,2.0,73,0.00,,SKC,0.00,VWS V14.01,2013-08-11 14:40:00,
2013-08-11 10:47:00,83.7,73.3,30.15,SSW,208,1.0,2.0,71,0.00,,SKC,0.00,VWS V14.01,2013-08-11 14:47:00,
2013-08-11 10:53:00,84.1,73.3,30.15,SSE,155,1.0,2.0,70,0.00,,SKC,0.00,VWS V14.01,2013-08-11 14:53:00,
2013-08-11 10:58:00,84.6,73.7,30.14,SW,214,0.0,2.0,70,0.00,,SKC,0.00,VWS V14.01,2013-08-11 14:58:00,
2013-08-11 11:00:00,84.6,73.7,30.14,WNW,292,0.0,3.0,70,0.00,,---,0.00,VWS V14.01,2013-08-11 15:00:00,
2013-08-11 11:04:00,84.7,73.0,30.14,SW,232,0.0,1.0,68,0.00,,SKC,0.00,VWS V14.01,2013-08-11 15:04:00,
2013-08-11 11:09:00,84.8,73.5,30.14,West,281,0.0,1.0,69,0.00,,SKC,0.00,VWS V14.01,2013-08-11 15:09:00,
2013-08-11 11:15:00,85.1,73.8,30.14,West,266,0.0,2.0,69,0.00,,SKC,0.00,VWS V14.01,2013-08-11 15:15:00,
2013-08-11 11:20:00,85.1,73.4,30.14,West,276,0.0,2.0,68,0.00,,SKC,0.00,VWS V14.01,2013-08-11 15:20:00,
2013-08-11 11:26:00,85.3,74.0,30.14,SSW,195,0.0,2.0,69,0.00,,SKC,0.00,VWS V14.01,2013-08-11 15:26:00,
2013-08-11 11:30:00,85.6,74.3,30.14,West,270,0.0,2.0,69,0.00,,---,0.00,VWS V14.01,2013-08-11 15:30:00,
2013-08-11 11:31:00,85.7,73.9,30.13,SW,218,0.0,0.0,68,0.00,,SKC,0.00,VWS V14.01,2013-08-11 15:31:00,
2013-08-11 11:37:00,85.3,74.0,30.13,South,184,0.0,2.0,69,0.00,,SKC,0.00,VWS V14.01,2013-08-11 15:37:00,
2013-08-11 11:44:00,85.2,73.0,30.13,South,181,0.0,2.0,67,0.00,,SKC,0.00,VWS V14.01,2013-08-11 15:44:00,
2013-08-11 11:49:00,85.3,73.6,30.13,WSW,243,2.0,2.0,68,0.00,,SKC,0.00,VWS V14.01,2013-08-11 15:49:00,
2013-08-11 11:55:00,85.5,72.8,30.13,SSE,155,1.0,2.0,66,0.00,,SKC,0.00,VWS V14.01,2013-08-11 15:55:00,
2013-08-11 12:00:00,85.5,72.8,30.13,SW,215,0.0,1.0,66,0.00,,SKC,0.00,VWS V14.01,2013-08-11 16:00:00,
2013-08-11 12:06:00,85.3,72.7,30.13,SE,146,1.0,1.0,66,0.00,,SKC,0.00,VWS V14.01,2013-08-11 16:06:00,
2013-08-11 12:11:00,85.0,73.3,30.13,West,278,0.0,1.0,68,0.00,,SKC,0.00,VWS V14.01,2013-08-11 16:11:00,
2013-08-11 12:17:00,84.9,74.0,30.13,West,278,0.0,1.0,70,0.00,,SKC,0.00,VWS V14.01,2013-08-11 16:17:00,
2013-08-11 12:22:00,85.1,72.5,30.13,West,278,0.0,1.0,66,0.00,,SKC,0.00,VWS V14.01,2013-08-11 16:22:00,
2013-08-11 12:28:00,85.4,74.1,30.13,West,278,0.0,1.0,69,0.00,,SKC,0.00,VWS V14.01,2013-08-11 16:28:00,
2013-08-11 12:30:00,85.5,72.8,30.12,West,270,0.0,3.0,66,0.00,,---,0.00,VWS V14.01,2013-08-11 16:30:00,
2013-08-11 12:33:00,85.7,73.0,30.12,WSW,250,1.0,1.0,66,0.00,,SKC,0.00,VWS V14.01,2013-08-11 16:33:00,
2013-08-11 12:39:00,85.8,74.5,30.12,SE,128,0.0,1.0,69,0.00,,SKC,0.00,VWS V14.01,2013-08-11 16:39:00,
2013-08-11 12:44:00,85.9,74.1,30.12,West,272,0.0,2.0,68,0.00,,SKC,0.00,VWS V14.01,2013-08-11 16:44:00,
2013-08-11 12:50:00,86.3,74.1,30.12,West,272,1.0,2.0,67,0.00,,SKC,0.00,VWS V14.01,2013-08-11 16:50:00,
2013-08-11 12:55:00,86.8,74.5,30.12,ESE,103,0.0,2.0,67,0.00,,SKC,0.00,VWS V14.01,2013-08-11 16:55:00,
2013-08-11 13:00:00,87.3,74.6,30.12,West,270,0.0,3.0,66,0.00,,---,0.00,VWS V14.01,2013-08-11 17:00:00,
2013-08-11 13:01:00,87.5,74.3,30.12,SW,226,0.0,0.0,65,0.00,,SKC,0.00,VWS V14.01,2013-08-11 17:01:00,
2013-08-11 13:08:00,87.8,74.1,30.12,SE,125,0.0,1.0,64,0.00,,SKC,0.00,VWS V14.01,2013-08-11 17:08:00,
2013-08-11 13:13:00,87.7,73.6,30.12,SSW,193,0.0,1.0,63,0.00,,SKC,0.00,VWS V14.01,2013-08-11 17:13:00,
2013-08-11 13:18:00,88.0,74.8,30.11,SW,233,0.0,1.0,65,0.00,,SKC,0.00,VWS V14.01,2013-08-11 17:18:00,
2013-08-11 13:24:00,88.8,75.1,30.11,West,259,0.0,2.0,64,0.00,,SKC,0.00,VWS V14.01,2013-08-11 17:24:00,
2013-08-11 13:29:00,89.3,74.1,30.11,SW,229,2.0,2.0,61,0.00,,SKC,0.00,VWS V14.01,2013-08-11 17:29:00,
2013-08-11 13:30:00,89.3,74.1,30.11,SW,225,0.0,2.0,61,0.00,,---,0.00,VWS V14.01,2013-08-11 17:30:00,
2013-08-11 13:35:00,89.8,75.1,30.10,WNW,293,0.0,2.0,62,0.00,,SKC,0.00,VWS V14.01,2013-08-11 17:35:00,
2013-08-11 13:40:00,90.1,74.8,30.10,WNW,289,0.0,2.0,61,0.00,,SKC,0.00,VWS V14.01,2013-08-11 17:40:00,
2013-08-11 13:47:00,90.8,76.0,30.10,SW,229,0.0,2.0,62,0.00,,SKC,0.00,VWS V14.01,2013-08-11 17:47:00,
2013-08-11 13:55:00,90.8,75.0,30.09,SSW,201,1.0,2.0,60,0.00,,SKC,0.00,VWS V14.01,2013-08-11 17:55:00,
2013-08-11 14:00:00,90.8,75.0,30.09,SW,225,0.0,2.0,60,0.00,,---,0.00,VWS V14.01,2013-08-11 18:00:00,
2013-08-11 14:02:00,91.0,74.2,30.09,WSW,250,1.0,1.0,58,0.00,,SKC,0.00,VWS V14.01,2013-08-11 18:02:00,
2013-08-11 14:07:00,91.6,74.7,30.09,SSE,157,1.0,2.0,58,0.00,,SKC,0.00,VWS V14.01,2013-08-11 18:07:00,
2013-08-11 14:13:00,92.0,75.1,30.09,SW,234,2.0,2.0,58,0.00,,SKC,0.00,VWS V14.01,2013-08-11 18:13:00,
2013-08-11 14:18:00,92.2,75.3,30.09,SW,234,0.0,2.0,58,0.00,,SKC,0.00,VWS V14.01,2013-08-11 18:18:00,
2013-08-11 14:24:00,92.5,76.6,30.09,WSW,253,0.0,2.0,60,0.00,,SKC,0.00,VWS V14.01,2013-08-11 18:24:00,
2013-08-11 14:29:00,92.6,75.2,30.08,West,266,0.0,2.0,57,0.00,,SKC,0.00,VWS V14.01,2013-08-11 18:29:00,
2013-08-11 14:30:00,92.6,75.2,30.09,West,270,0.0,3.0,57,0.00,,---,0.00,VWS V14.01,2013-08-11 18:30:00,
2013-08-11 14:38:00,92.3,75.4,30.08,WNW,287,0.0,1.0,58,0.00,,SKC,0.00,VWS V14.01,2013-08-11 18:38:00,
2013-08-11 14:43:00,91.9,73.4,30.08,South,177,0.0,2.0,55,0.00,,SKC,0.00,VWS V14.01,2013-08-11 18:43:00,
2013-08-11 14:49:00,91.4,74.6,30.08,South,179,0.0,2.0,58,0.00,,SKC,0.00,VWS V14.01,2013-08-11 18:49:00,
2013-08-11 14:54:00,91.2,74.9,30.08,West,269,1.0,2.0,59,0.00,,SKC,0.00,VWS V14.01,2013-08-11 18:54:00,
2013-08-11 15:00:00,91.0,73.1,30.08,WNW,292,1.0,3.0,56,0.00,,---,0.00,VWS V14.01,2013-08-11 19:00:00,
2013-08-11 15:02:00,90.4,73.6,30.09,ENE,68,0.0,2.0,58,0.00,,SKC,0.00,VWS V14.01,2013-08-11 19:02:00,
2013-08-11 15:07:00,90.2,74.9,30.08,SW,219,2.0,2.0,61,0.00,,SKC,0.00,VWS V14.01,2013-08-11 19:07:00,
2013-08-11 15:12:00,90.6,75.3,30.08,SW,219,0.0,2.0,61,0.00,,SKC,0.00,VWS V14.01,2013-08-11 19:12:00,
2013-08-11 15:18:00,91.0,74.2,30.08,WNW,287,0.0,2.0,58,0.00,,SKC,0.00,VWS V14.01,2013-08-11 19:18:00,
2013-08-11 15:24:00,91.4,74.0,30.08,SE,145,0.0,3.0,57,0.00,,SKC,0.00,VWS V14.01,2013-08-11 19:24:00,
2013-08-11 15:29:00,91.9,75.5,30.08,SSE,167,0.0,3.0,59,0.00,,SKC,0.00,VWS V14.01,2013-08-11 19:29:00,
2013-08-11 15:30:00,91.9,75.5,30.08,West,270,0.0,4.0,59,0.00,,---,0.00,VWS V14.01,2013-08-11 19:30:00,
2013-08-11 15:35:00,92.3,74.3,30.08,West,278,0.0,1.0,56,0.00,,SKC,0.00,VWS V14.01,2013-08-11 19:35:00,
2013-08-11 15:40:00,91.8,73.3,30.09,East,99,0.0,1.0,55,0.00,,SKC,0.00,VWS V14.01,2013-08-11 19:40:00,
2013-08-11 15:46:00,88.7,71.5,30.09,ESE,107,0.0,1.0,57,0.00,,SKC,0.00,VWS V14.01,2013-08-11 19:46:00,
2013-08-11 15:51:00,86.3,70.8,30.10,WNW,291,0.0,2.0,60,0.00,,SKC,0.00,VWS V14.01,2013-08-11 19:51:00,
2013-08-11 15:57:00,83.9,70.9,30.09,ESE,106,0.0,3.0,65,0.00,,SKC,0.00,VWS V14.01,2013-08-11 19:57:00,
2013-08-11 16:00:00,83.0,71.4,30.10,West,270,0.0,4.0,68,0.00,,---,0.00,VWS V14.01,2013-08-11 20:00:00,
2013-08-11 16:02:00,82.2,72.3,30.10,ESE,105,0.0,1.0,72,0.01,,SKC,0.01,VWS V14.01,2013-08-11 20:02:00,
2013-08-11 16:07:00,80.3,72.1,30.09,WNW,288,3.0,3.0,76,0.16,,SKC,0.16,VWS V14.01,2013-08-11 20:07:00,
2013-08-11 16:13:00,76.4,69.8,30.10,WNW,282,0.0,3.0,80,0.23,,SKC,0.23,VWS V14.01,2013-08-11 20:13:00,
2013-08-11 16:20:00,74.3,69.8,30.10,West,272,1.0,3.0,86,0.36,,SKC,0.36,VWS V14.01,2013-08-11 20:20:00,
2013-08-11 16:26:00,73.3,68.9,30.09,SSE,155,0.0,3.0,86,0.44,,SKC,0.44,VWS V14.01,2013-08-11 20:26:00,
2013-08-11 16:30:00,72.9,68.8,30.09,WNW,292,0.0,5.0,87,0.00,,---,0.45,VWS V14.01,2013-08-11 20:30:00,
2013-08-11 16:32:00,72.6,68.8,30.09,West,269,0.0,1.0,88,0.46,,SKC,0.46,VWS V14.01,2013-08-11 20:32:00,
2013-08-11 16:38:00,71.9,68.2,30.09,SW,217,0.0,1.0,88,0.56,,SKC,0.56,VWS V14.01,2013-08-11 20:38:00,
2013-08-11 16:44:00,71.5,68.1,30.08,WNW,287,0.0,1.0,89,0.57,,SKC,0.57,VWS V14.01,2013-08-11 20:44:00,
2013-08-11 16:50:00,71.2,67.8,30.09,West,259,0.0,1.0,89,0.58,,SKC,0.58,VWS V14.01,2013-08-11 20:50:00,
2013-08-11 16:55:00,71.2,67.5,30.09,West,272,0.0,1.0,88,0.60,,SKC,0.60,VWS V14.01,2013-08-11 20:55:00,
2013-08-11 17:00:00,71.2,67.5,30.09,West,270,0.0,2.0,88,0.00,,---,0.62,VWS V14.01,2013-08-11 21:00:00,
2013-08-11 17:01:00,71.2,67.5,30.10,WNW,290,0.0,0.0,88,0.62,,SKC,0.62,VWS V14.01,2013-08-11 21:01:00,
2013-08-11 17:08:00,71.1,67.4,30.11,WSW,257,1.0,2.0,88,0.63,,SKC,0.63,VWS V14.01,2013-08-11 21:08:00,
2013-08-11 17:13:00,71.1,67.4,30.10,WSW,256,1.0,2.0,88,0.65,,SKC,0.65,VWS V14.01,2013-08-11 21:13:00,
2013-08-11 17:19:00,70.8,67.1,30.10,SSW,202,0.0,2.0,88,0.68,,SKC,0.68,VWS V14.01,2013-08-11 21:19:00,
2013-08-11 17:24:00,70.6,66.9,30.09,South,169,0.0,2.0,88,0.68,,SKC,0.68,VWS V14.01,2013-08-11 21:24:00,
2013-08-11 17:29:00,70.5,66.8,30.09,South,169,0.0,2.0,88,0.70,,SKC,0.70,VWS V14.01,2013-08-11 21:29:00,
2013-08-11 17:30:00,70.5,66.8,30.09,WNW,292,0.0,2.0,88,0.00,,---,0.70,VWS V14.01,2013-08-11 21:30:00,
2013-08-11 17:35:00,70.3,66.6,30.08,WSW,242,0.0,0.0,88,0.27,,SKC,0.72,VWS V14.01,2013-08-11 21:35:00,
2013-08-11 17:40:00,70.3,66.6,30.09,West,259,0.0,1.0,88,0.27,,SKC,0.72,VWS V14.01,2013-08-11 21:40:00,
2013-08-11 17:46:00,70.4,66.3,30.09,SW,228,0.0,1.0,87,0.27,,SKC,0.72,VWS V14.01,2013-08-11 21:46:00,
2013-08-11 17:51:00,70.5,66.4,30.08,SW,227,0.0,1.0,87,0.27,,SKC,0.72,VWS V14.01,2013-08-11 21:51:00,
2013-08-11 17:57:00,70.8,66.1,30.08,SW,227,0.0,1.0,85,0.27,,SKC,0.72,VWS V14.01,2013-08-11 21:57:00,
2013-08-11 18:00:00,70.9,66.2,30.08,WSW,248,0.0,1.0,85,0.00,,---,0.72,VWS V14.01,2013-08-11 22:00:00,
2013-08-11 18:03:00,71.1,66.4,30.08,South,183,0.0,0.0,85,0.10,,SKC,0.72,VWS V14.01,2013-08-11 22:03:00,
2013-08-11 18:08:00,71.6,66.9,30.08,SW,221,0.0,0.0,85,0.10,,SKC,0.72,VWS V14.01,2013-08-11 22:08:00,
2013-08-11 18:13:00,72.1,67.3,30.08,SE,145,0.0,0.0,85,0.10,,SKC,0.72,VWS V14.01,2013-08-11 22:13:00,
2013-08-11 18:19:00,72.5,67.7,30.07,SE,145,0.0,0.0,85,0.10,,SKC,0.72,VWS V14.01,2013-08-11 22:19:00,
2013-08-11 18:24:00,72.9,68.1,30.07,SSW,194,0.0,0.0,85,0.10,,SKC,0.72,VWS V14.01,2013-08-11 22:24:00,
2013-08-11 18:30:00,72.7,68.9,30.07,West,270,0.0,1.0,88,0.00,,---,0.72,VWS V14.01,2013-08-11 22:30:00,
2013-08-11 18:31:00,72.8,69.0,30.07,West,262,0.0,0.0,88,0.02,,SKC,0.72,VWS V14.01,2013-08-11 22:31:00,
2013-08-11 18:37:00,73.0,69.2,30.07,West,262,0.0,0.0,88,0.02,,SKC,0.72,VWS V14.01,2013-08-11 22:37:00,
2013-08-11 18:44:00,73.5,69.4,30.07,West,262,0.0,0.0,87,0.02,,SKC,0.72,VWS V14.01,2013-08-11 22:44:00,
2013-08-11 18:51:00,73.8,69.7,30.07,West,262,0.0,0.0,87,0.02,,SKC,0.72,VWS V14.01,2013-08-11 22:51:00,
2013-08-11 18:59:00,74.1,70.0,30.07,West,262,0.0,0.0,87,0.02,,SKC,0.72,VWS V14.01,2013-08-11 22:59:00,
2013-08-11 19:00:00,74.1,70.0,30.07,West,270,0.0,0.0,87,0.00,,---,0.72,VWS V14.01,2013-08-11 23:00:00,
2013-08-11 19:05:00,74.4,70.3,30.07,West,262,0.0,0.0,87,0.00,,SKC,0.72,VWS V14.01,2013-08-11 23:05:00,
2013-08-11 19:10:00,74.6,70.5,30.07,West,262,0.0,0.0,87,0.00,,SKC,0.72,VWS V14.01,2013-08-11 23:10:00,
2013-08-11 19:16:00,74.8,70.7,30.07,West,262,0.0,0.0,87,0.00,,SKC,0.72,VWS V14.01,2013-08-11 23:16:00,
2013-08-11 19:21:00,75.1,71.3,30.07,West,262,0.0,0.0,88,0.00,,SKC,0.72,VWS V14.01,2013-08-11 23:21:00,
2013-08-11 19:27:00,75.4,71.6,30.07,West,262,0.0,0.0,88,0.00,,SKC,0.72,VWS V14.01,2013-08-11 23:27:00,
2013-08-11 19:30:00,75.6,71.8,30.07,West,270,0.0,0.0,88,0.00,,---,0.72,VWS V14.01,2013-08-11 23:30:00,
2013-08-11 19:33:00,75.7,71.9,30.07,West,262,0.0,0.0,88,0.00,,SKC,0.72,VWS V14.01,2013-08-11 23:33:00,
2013-08-11 19:38:00,75.6,71.8,30.08,West,262,0.0,0.0,88,0.00,,SKC,0.72,VWS V14.01,2013-08-11 23:38:00,
2013-08-11 19:44:00,75.3,71.5,30.08,West,262,0.0,0.0,88,0.00,,SKC,0.72,VWS V14.01,2013-08-11 23:44:00,
2013-08-11 19:49:00,75.0,71.2,30.08,West,262,0.0,0.0,88,0.00,,SKC,0.72,VWS V14.01,2013-08-11 23:49:00,
2013-08-11 19:55:00,74.7,71.2,30.08,West,262,0.0,0.0,89,0.00,,SKC,0.72,VWS V14.01,2013-08-11 23:55:00,
2013-08-11 20:00:00,74.4,70.9,30.09,West,270,0.0,0.0,89,0.00,,---,0.72,VWS V14.01,2013-08-12 00:00:00,
2013-08-11 20:02:00,74.3,70.5,30.09,West,262,0.0,0.0,88,0.00,,SKC,0.72,VWS V14.01,2013-08-12 00:02:00,
2013-08-11 20:07:00,74.0,70.2,30.08,West,262,0.0,0.0,88,0.00,,SKC,0.72,VWS V14.01,2013-08-12 00:07:00,
2013-08-11 20:13:00,73.8,70.0,30.09,West,262,0.0,0.0,88,0.00,,SKC,0.72,VWS V14.01,2013-08-12 00:13:00,
2013-08-11 20:18:00,73.6,69.8,30.08,West,262,0.0,0.0,88,0.00,,SKC,0.72,VWS V14.01,2013-08-12 00:18:00,
2013-08-11 20:24:00,73.4,69.6,30.08,West,262,0.0,0.0,88,0.00,,SKC,0.72,VWS V14.01,2013-08-12 00:24:00,
2013-08-11 20:29:00,73.3,69.5,30.08,West,262,0.0,0.0,88,0.00,,SKC,0.72,VWS V14.01,2013-08-12 00:29:00,
2013-08-11 20:30:00,73.3,69.5,30.08,West,270,0.0,0.0,88,0.00,,---,0.72,VWS V14.01,2013-08-12 00:30:00,
2013-08-11 20:35:00,73.1,69.3,30.08,West,262,0.0,0.0,88,0.00,,SKC,0.72,VWS V14.01,2013-08-12 00:35:00,
2013-08-11 20:42:00,73.0,68.9,30.09,West,262,0.0,0.0,87,0.00,,SKC,0.72,VWS V14.01,2013-08-12 00:42:00,
2013-08-11 20:47:00,72.9,68.8,30.09,West,262,0.0,0.0,87,0.00,,SKC,0.72,VWS V14.01,2013-08-12 00:47:00,
2013-08-11 20:53:00,73.0,68.6,30.08,West,262,0.0,0.0,86,0.00,,SKC,0.72,VWS V14.01,2013-08-12 00:53:00,
2013-08-11 20:59:00,73.2,68.4,30.08,West,262,0.0,0.0,85,0.00,,SKC,0.72,VWS V14.01,2013-08-12 00:59:00,
2013-08-11 21:00:00,73.2,68.4,30.08,West,270,0.0,0.0,85,0.00,,---,0.72,VWS V14.01,2013-08-12 01:00:00,
2013-08-11 21:04:00,73.3,68.5,30.08,West,262,0.0,0.0,85,0.00,,SKC,0.72,VWS V14.01,2013-08-12 01:04:00,
2013-08-11 21:11:00,73.2,68.4,30.07,West,262,0.0,0.0,85,0.00,,SKC,0.72,VWS V14.01,2013-08-12 01:11:00,
2013-08-11 21:18:00,73.2,68.4,30.08,West,262,0.0,0.0,85,0.00,,SKC,0.72,VWS V14.01,2013-08-12 01:18:00,
2013-08-11 21:24:00,73.2,68.4,30.08,West,262,0.0,0.0,85,0.00,,SKC,0.72,VWS V14.01,2013-08-12 01:24:00,
2013-08-11 21:29:00,73.1,68.3,30.08,West,262,0.0,0.0,85,0.00,,SKC,0.72,VWS V14.01,2013-08-12 01:29:00,
2013-08-11 21:30:00,73.1,68.3,30.07,West,270,0.0,0.0,85,0.00,,---,0.72,VWS V14.01,2013-08-12 01:30:00,
2013-08-11 21:35:00,73.0,68.2,30.08,West,262,0.0,0.0,85,0.00,,SKC,0.72,VWS V14.01,2013-08-12 01:35:00,
2013-08-11 21:43:00,72.9,68.1,30.08,West,262,0.0,0.0,85,0.00,,SKC,0.72,VWS V14.01,2013-08-12 01:43:00,
2013-08-11 21:49:00,72.9,68.1,30.09,West,262,0.0,0.0,85,0.00,,SKC,0.72,VWS V14.01,2013-08-12 01:49:00,
2013-08-11 21:56:00,72.8,68.0,30.09,West,262,0.0,0.0,85,0.00,,SKC,0.72,VWS V14.01,2013-08-12 01:56:00,
2013-08-11 22:00:00,72.7,67.9,30.09,West,270,0.0,0.0,85,0.00,,---,0.72,VWS V14.01,2013-08-12 02:00:00,
2013-08-11 22:03:00,72.7,67.9,30.10,West,262,0.0,0.0,85,0.00,,SKC,0.72,VWS V14.01,2013-08-12 02:03:00,
2013-08-11 22:08:00,72.6,67.8,30.10,West,262,0.0,0.0,85,0.00,,SKC,0.72,VWS V14.01,2013-08-12 02:08:00,
2013-08-11 22:14:00,72.6,67.8,30.10,West,262,0.0,0.0,85,0.00,,SKC,0.72,VWS V14.01,2013-08-12 02:14:00,
2013-08-11 22:19:00,72.6,67.5,30.11,West,262,0.0,0.0,84,0.00,,SKC,0.72,VWS V14.01,2013-08-12 02:19:00,
2013-08-11 22:25:00,72.6,67.8,30.11,West,262,0.0,0.0,85,0.00,,SKC,0.72,VWS V14.01,2013-08-12 02:25:00,
2013-08-11 22:30:00,72.6,67.5,30.11,West,262,0.0,0.0,84,0.00,,SKC,0.72,VWS V14.01,2013-08-12 02:30:00,
2013-08-11 22:36:00,72.6,67.5,30.12,West,262,0.0,0.0,84,0.00,,SKC,0.72,VWS V14.01,2013-08-12 02:36:00,
2013-08-11 22:41:00,72.6,67.5,30.12,West,262,0.0,0.0,84,0.00,,SKC,0.72,VWS V14.01,2013-08-12 02:41:00,
2013-08-11 22:47:00,72.5,67.4,30.12,West,262,0.0,0.0,84,0.00,,SKC,0.72,VWS V14.01,2013-08-12 02:47:00,
2013-08-11 22:52:00,72.7,67.6,30.12,West,262,0.0,0.0,84,0.00,,SKC,0.72,VWS V14.01,2013-08-12 02:52:00,
2013-08-11 22:59:00,72.7,67.6,30.12,West,262,0.0,0.0,84,0.00,,SKC,0.72,VWS V14.01,2013-08-12 02:59:00,
2013-08-11 23:00:00,72.7,67.6,30.12,West,270,0.0,0.0,84,0.00,,---,0.72,VWS V14.01,2013-08-12 03:00:00,
2013-08-11 23:05:00,72.7,67.6,30.12,West,262,0.0,0.0,84,0.00,,SKC,0.72,VWS V14.01,2013-08-12 03:05:00,
2013-08-11 23:10:00,72.6,67.5,30.12,West,262,0.0,0.0,84,0.00,,SKC,0.72,VWS V14.01,2013-08-12 03:10:00,
2013-08-11 23:18:00,72.6,67.5,30.11,West,262,0.0,0.0,84,0.00,,SKC,0.72,VWS V14.01,2013-08-12 03:18:00,
2013-08-11 23:23:00,72.5,67.4,30.11,West,262,0.0,0.0,84,0.00,,SKC,0.72,VWS V14.01,2013-08-12 03:23:00,
2013-08-11 23:29:00,72.4,67.3,30.11,West,262,0.0,0.0,84,0.00,,SKC,0.72,VWS V14.01,2013-08-12 03:29:00,
2013-08-11 23:30:00,72.4,67.3,30.11,West,270,0.0,0.0,84,0.00,,---,0.72,VWS V14.01,2013-08-12 03:30:00,
2013-08-11 23:34:00,72.3,67.2,30.11,West,262,0.0,0.0,84,0.00,,SKC,0.72,VWS V14.01,2013-08-12 03:34:00,
2013-08-11 23:40:00,72.2,67.1,30.10,West,262,0.0,0.0,84,0.00,,SKC,0.72,VWS V14.01,2013-08-12 03:40:00,
2013-08-11 23:45:00,72.2,67.1,30.10,West,262,0.0,0.0,84,0.00,,SKC,0.72,VWS V14.01,2013-08-12 03:45:00,
2013-08-11 23:51:00,72.1,67.0,30.10,West,262,0.0,0.0,84,0.00,,SKC,0.72,VWS V14.01,2013-08-12 03:51:00,
2013-08-11 23:56:00,72.0,66.9,30.10,West,262,0.0,0.0,84,0.00,,SKC,0.72,VWS V14.01,2013-08-12 03:56:00,